Flag for Germany Weather past 2 weeks in Steinfurt, North Rhine-Westphalia, Germany

Now
54 °F

Cool.


Feels Like: 53 °F
Forecast: 49 / 58 °F
Wind: 3 mph from South

Location: Rheine-Bentlage

Current Time: Oct 23, 2014 at 8:01:08 PM

Latest Report: Oct 23, 2014 at 7:20 PM


Visibility: N/A

Pressure: 30.15 "Hg

Humidity: 88%

Dew point: 50 °F

Location of SteinfurtLocation

Historic Weather in Steinfurt — Graph

°F

Steinfurt temperature yesterday

Maximum temperature yesterday: 54 °F (at 2:20 PM)
Minimum temperature yesterday: 45 °F (at 1:20 AM)
Average temperature yesterday: 49 °F

Past Weeks' High & Low Weather Summary

 TemperatureHumidityPressure
High73 °F (Oct 19, 2:20 PM)100% (Oct 10, 9:20 PM)30.21 "Hg (Oct 10, 9:20 PM)
Low45 °F (Oct 11, 7:20 AM)56% (Oct 14, 1:20 PM)29.42 "Hg (Oct 21, 4:20 PM)
Average56 °F86%29.84 "Hg
* Reported Oct 8 6:20 PM — Oct 23 6:20 PM, Steinfurt, Weather by CustomWeather, © 2014

Note: Actual official high and low records may vary slightly from our data, if they occured in-between our weather recording intervals... More about our weather records

Advertising

Steinfurt weather history for previous 24 hours

 ConditionsComfort  
Time TempWeatherWind HumidityBarometerVisibility
6:20 PM
Oct 23
54 °FCool.2 mph88%30.15 "HgN/A
5:20 PM55 °FCool.3 mph82%30.18 "HgN/A
4:20 PM55 °FCool.6 mph82%30.18 "HgN/A
3:20 PM55 °FCool.6 mph77%30.18 "HgN/A
2:20 PM54 °FCool.6 mph82%30.18 "HgN/A
1:20 PM54 °FCool.5 mph88%30.18 "HgN/A
12:20 PM52 °FBroken clouds.3 mph88%30.21 "Hg4 mi
11:20 AM52 °FBroken clouds.3 mph88%30.21 "Hg4 mi
10:20 AM50 °FPartly sunny.5 mph94%30.18 "Hg4 mi
9:20 AM50 °FFog.3 mph94%30.18 "Hg3 mi
8:20 AM48 °FDrizzle. Fog.2 mph100%30.18 "Hg2 mi
7:20 AM48 °FDrizzle. Fog.3 mph94%30.15 "Hg2 mi
6:20 AM48 °FPassing clouds.7 mph87%30.15 "HgN/A
5:20 AM48 °FPassing clouds.2 mph87%30.15 "HgN/A
4:20 AM48 °FCool.5 mph87%30.15 "HgN/A
3:20 AM46 °FCool.5 mph87%30.15 "HgN/A
2:20 AM48 °FCool.3 mph82%30.15 "HgN/A
1:20 AM46 °FCool.6 mph87%30.15 "HgN/A
12:20 AM48 °FCool.6 mph87%30.15 "HgN/A
11:20 PM
Oct 22
50 °FCool.7 mph76%30.15 "HgN/A
10:20 PM50 °FCool.6 mph76%30.12 "HgN/A
9:20 PM50 °FCool.7 mph71%30.12 "HgN/A
8:20 PM52 °FCool.9 mph67%30.09 "HgN/A
Weather by CustomWeather, © 2014

See weather overviewHow to use our weather pages